FW3644 Weather Reports


Display with metric or nautical units.
time (UTC)temp
F
wind
direction
speed
MPH
gust
MPH
rain 1hr
in
rain 24hr
in
rain mn
in
humidity
%
barometer
mb
20190627110019 68 158 7.0 10.0 0.00 0.00 0.00 85 1020.4
20190627105516 68 158 7.0 11.0 0.00 0.00 0.00 86 1020.4
20190627105021 68 159 8.0 11.0 0.00 0.00 0.00 84 1020.4
20190627104517 68 164 7.0 10.0 0.00 0.00 0.00 85 1020.4
20190627104019 68 160 7.0 11.0 0.00 0.00 0.00 85 1020.4
20190627103520 68 160 7.0 11.0 0.00 0.00 0.00 85 1020.4
20190627103018 68 160 7.0 10.0 0.00 0.00 0.00 85 1020.5
20190627102517 68 159 7.0 10.0 0.00 0.00 0.00 85 1020.3
20190627102022 68 160 8.0 11.0 0.00 0.00 0.00 84 1020.4
20190627101517 68 156 8.0 11.0 0.00 0.00 0.00 85 1020.5
20190627101018 68 157 7.0 10.0 0.00 0.00 0.00 85 1020.5
20190627100520 68 163 7.0 10.0 0.00 0.00 0.00 85 1020.6
20190627100018 68 156 6.0 9.0 0.00 0.00 0.00 85 1020.6
20190627095516 68 163 7.0 9.0 0.00 0.00 0.00 84 1020.7
20190627095022 68 162 7.0 10.0 0.00 0.00 0.00 83 1020.6
20190627094517 68 164 8.0 11.0 0.00 0.00 0.00 84 1020.6
20190627094019 68 161 8.0 11.0 0.00 0.00 0.00 83 1020.6
20190627093519 68 160 7.0 11.0 0.00 0.00 0.00 84 1020.6
20190627093019 68 158 8.0 12.0 0.00 0.00 0.00 83 1020.7
20190627092516 68 162 9.0 11.0 0.00 0.00 0.00 84 1020.7
20190627092022 68 160 8.0 11.0 0.00 0.00 0.00 85 1020.6
20190627091516 68 162 8.0 11.0 0.00 0.00 0.00 85 1020.6
20190627091017 68 163 8.0 12.0 0.00 0.00 0.00 85 1020.6
20190627090520 68 160 8.0 11.0 0.00 0.00 0.00 85 1020.5
20190627090019 68 160 7.0 9.0 0.00 0.00 0.00 84 1020.4
20190627085516 68 164 8.0 12.0 0.00 0.00 0.00 85 1020.3
20190627085021 68 158 8.0 11.0 0.00 0.00 0.00 85 1020.2
20190627084517 68 158 7.0 11.0 0.00 0.00 0.00 84 1020.3
20190627084017 68 162 9.0 11.0 0.00 0.00 0.00 83 1020.4
20190627083521 68 163 7.0 10.0 0.00 0.00 0.00 84 1020.4
20190627083018 68 160 8.0 9.0 0.00 0.00 0.00 83 1020.5
20190627082517 69 162 7.0 10.0 0.00 0.00 0.00 83 1020.5
20190627082022 69 158 8.0 11.0 0.00 0.00 0.00 82 1020.5
20190627081517 69 160 8.0 11.0 0.00 0.00 0.00 81 1020.6
20190627051517 73 158 9.0 12.0 0.00 0.00 0.00 74 1020.5
20190627051019 73 156 10.0 15.0 0.00 0.00 0.00 74 1020.5
20190627050520 73 156 8.0 14.0 0.00 0.00 0.00 74 1020.4
20190627045517 74 143 11.0 16.0 0.00 0.00 0.00 72 1020.1
20190627045023 74 141 9.0 14.0 0.00 0.00 0.00 71 1020.0
20190627044517 74 153 10.0 15.0 0.00 0.00 0.00 71 1020.0
20190627044019 74 150 9.0 14.0 0.00 0.00 0.00 71 1019.9
20190627043521 75 150 9.0 14.0 0.00 0.00 0.00 70 1019.7
20190627043020 75 146 8.0 14.0 0.00 0.00 0.00 69 1019.8
20190627042517 75 151 10.0 15.0 0.00 0.00 0.00 69 1019.7
20190627042025 75 150 9.0 14.0 0.00 0.00 0.00 70 1019.6
20190627041519 75 151 9.0 14.0 0.00 0.00 0.00 70 1019.5
20190627041019 75 149 10.0 16.0 0.00 0.00 0.00 69 1019.5
20190627040534 75 151 9.0 17.0 0.00 0.00 0.00 69 1019.6
20190627040013 75 151 9.0 15.0 0.00 0.00 0.00 68 1019.5
20190627035517 76 148 10.0 16.0 0.00 0.00 0.00 68 1019.5
20190627035022 76 146 9.0 13.0 0.00 0.00 0.00 67 1019.5
20190627034517 76 151 9.0 13.0 0.00 0.00 0.00 68 1019.4
20190627034019 76 146 10.0 15.0 0.00 0.00 0.00 66 1019.4
20190627033520 76 156 10.0 15.0 0.00 0.00 0.00 67 1019.3
20190627033020 76 151 9.0 14.0 0.00 0.00 0.00 66 1019.2
20190627032516 77 150 9.0 13.0 0.00 0.00 0.00 65 1019.3
20190627032022 77 150 9.0 13.0 0.00 0.00 0.00 64 1019.3
20190627031517 77 145 9.0 14.0 0.00 0.00 0.00 63 1019.2
20190627031019 77 146 9.0 14.0 0.00 0.00 0.00 63 1019.2
20190627030520 77 148 9.0 14.0 0.00 0.00 0.00 63 1019.1
20190627030021 77 150 9.0 12.0 0.00 0.00 0.00 63 1018.9
20190627025517 78 150 9.0 13.0 0.00 0.00 0.00 62 1018.9
20190627025022 78 155 9.0 13.0 0.00 0.00 0.00 61 1018.8
20190627024518 78 148 9.0 14.0 0.00 0.00 0.00 60 1019.0
20190627024017 78 149 9.0 14.0 0.00 0.00 0.00 59 1018.9
20190627023521 79 152 9.0 14.0 0.00 0.00 0.00 58 1018.9
20190627023019 79 152 9.0 15.0 0.00 0.00 0.00 58 1018.8
20190627022516 80 153 9.0 13.0 0.00 0.00 0.00 57 1018.7
20190627022023 80 159 9.0 13.0 0.00 0.00 0.00 57 1018.7
20190627021516 80 152 10.0 13.0 0.00 0.00 0.00 56 1018.7
20190627021018 81 155 9.0 14.0 0.00 0.00 0.00 55 1018.5
20190627020520 81 154 9.0 15.0 0.00 0.00 0.00 54 1018.4
20190627020020 82 154 9.0 14.0 0.00 0.00 0.00 52 1018.4
20190627015516 82 144 10.0 16.0 0.00 0.00 0.00 52 1018.4
20190627015022 83 154 9.0 13.0 0.00 0.00 0.00 50 1018.4
20190627014516 83 153 10.0 14.0 0.00 0.00 0.00 51 1018.4
20190627014018 83 156 11.0 15.0 0.00 0.00 0.00 51 1018.3
20190627013520 83 156 9.0 14.0 0.00 0.00 0.00 50 1018.2
20190627013018 84 154 10.0 15.0 0.00 0.00 0.00 49 1018.3
20190627012516 84 155 10.0 15.0 0.00 0.00 0.00 50 1018.2
20190627012023 84 157 11.0 16.0 0.00 0.00 0.00 50 1018.2
20190627011516 85 154 9.0 14.0 0.00 0.00 0.00 48 1018.1
20190627011018 85 156 8.0 12.0 0.00 0.00 0.00 48 1018.2
20190627010522 86 156 10.0 16.0 0.00 0.00 0.00 47 1018.1
20190627010020 86 157 10.0 15.0 0.00 0.00 0.00 47 1018.1
20190627005516 87 156 10.0 15.0 0.00 0.00 0.00 46 1018.0
20190627005023 87 155 10.0 15.0 0.00 0.00 0.00 45 1018.0
20190627004517 87 155 10.0 15.0 0.00 0.00 0.00 45 1017.9
20190627004019 87 158 10.0 15.0 0.00 0.00 0.00 44 1018.1
20190627003519 86 156 13.0 18.0 0.00 0.00 0.00 44 1017.9
20190627003020 87 159 12.0 18.0 0.00 0.00 0.00 43 1018.0
20190627002516 87 159 13.0 20.0 0.00 0.00 0.00 43 1018.0
20190627002022 88 157 13.0 19.0 0.00 0.00 0.00 42 1018.1
20190627001516 88 161 12.0 17.0 0.00 0.00 0.00 42 1018.1
20190627001019 88 159 14.0 19.0 0.00 0.00 0.00 41 1018.1
20190627000521 88 163 14.0 19.0 0.00 0.00 0.00 41 1018.0
20190627000020 89 155 14.0 20.0 0.00 0.00 0.00 42 1018.0
20190626235516 89 159 14.0 22.0 0.00 0.00 0.00 40 1017.9
20190626235022 89 156 15.0 20.0 0.00 0.00 0.00 41 1017.9
20190626234517 89 153 14.0 22.0 0.00 0.00 0.00 39 1017.9
20190626234018 89 161 16.0 23.0 0.00 0.00 0.00 39 1018.0
20190626233520 90 161 14.0 19.0 0.00 0.00 0.00 37 1018.1
20190626233019 90 162 15.0 22.0 0.00 0.00 0.00 36 1018.0
20190626232516 90 158 16.0 21.0 0.00 0.00 0.00 36 1018.1
20190626232022 90 160 15.0 22.0 0.00 0.00 0.00 37 1018.0
20190626231516 90 163 15.0 22.0 0.00 0.00 0.00 37 1018.1
20190626231019 90 156 14.0 20.0 0.00 0.00 0.00 36 1018.1
20190626230521 90 164 17.0 25.0 0.00 0.00 0.00 36 1018.0
20190626230019 90 159 14.0 20.0 0.00 0.00 0.00 36 1018.2
20190626225516 90 160 14.0 21.0 0.00 0.00 0.00 34 1018.3
20190626225023 90 153 14.0 20.0 0.00 0.00 0.00 34 1018.3
20190626224517 91 154 15.0 21.0 0.00 0.00 0.00 33 1018.3
20190626224019 91 159 14.0 21.0 0.00 0.00 0.00 34 1018.3
20190626223520 91 159 15.0 24.0 0.00 0.00 0.00 32 1018.3
20190626223020 91 156 14.0 19.0 0.00 0.00 0.00 32 1018.0
20190626222613 91 160 15.0 22.0 0.00 0.00 0.00 32 1018.2
20190626222022 91 163 14.0 21.0 0.00 0.00 0.00 33 1018.4
20190626221517 91 157 15.0 20.0 0.00 0.00 0.00 33 1018.3
20190626221019 91 161 14.0 21.0 0.00 0.00 0.00 33 1018.4
20190626220520 91 154 17.0 23.0 0.00 0.00 0.00 32 1018.4
20190626220019 91 160 15.0 20.0 0.00 0.00 0.00 34 1018.4
20190626215516 91 156 14.0 20.0 0.00 0.00 0.00 35 1018.5
20190626215022 91 159 14.0 20.0 0.00 0.00 0.00 35 1018.6
20190626214516 91 159 15.0 21.0 0.00 0.00 0.00 36 1018.5
20190626214019 91 177 15.0 21.0 0.00 0.00 0.00 37 1018.6
20190626213520 90 155 14.0 21.0 0.00 0.00 0.00 37 1018.5
20190626213020 90 156 14.0 23.0 0.00 0.00 0.00 38 1018.6
20190626212516 90 151 13.0 22.0 0.00 0.00 0.00 39 1018.6
20190626212022 90 157 15.0 21.0 0.00 0.00 0.00 39 1018.5
20190626211517 90 155 15.0 21.0 0.00 0.00 0.00 40 1018.6
20190626211018 90 154 14.0 21.0 0.00 0.00 0.00 40 1018.7
20190626210520 90 153 13.0 20.0 0.00 0.00 0.00 40 1018.8
20190626210019 90 163 12.0 19.0 0.00 0.00 0.00 41 1018.9
20190626205517 89 168 13.0 19.0 0.00 0.00 0.00 41 1019.0
20190626205022 89 153 13.0 19.0 0.00 0.00 0.00 41 1019.1
20190626204516 89 158 15.0 21.0 0.00 0.00 0.00 40 1019.0
20190626204019 89 154 12.0 18.0 0.00 0.00 0.00 41 1019.1
20190626203520 89 158 14.0 21.0 0.00 0.00 0.00 41 1019.1
20190626203019 89 151 13.0 20.0 0.00 0.00 0.00 40 1019.2
20190626202517 89 153 14.0 20.0 0.00 0.00 0.00 39 1019.1
20190626202023 89 167 14.0 20.0 0.00 0.00 0.00 38 1019.0
20190626201517 88 171 16.0 23.0 0.00 0.00 0.00 41 1019.1
20190626201019 88 164 15.0 21.0 0.00 0.00 0.00 44 1019.1
20190626200521 88 171 13.0 20.0 0.00 0.00 0.00 45 1019.2
20190626200020 88 159 13.0 19.0 0.00 0.00 0.00 43 1019.1
20190626195516 88 155 12.0 18.0 0.00 0.00 0.00 44 1019.2
20190626195023 88 161 14.0 22.0 0.00 0.00 0.00 42 1019.3
20190626194517 87 163 15.0 20.0 0.00 0.00 0.00 43 1019.4
20190626194018 87 162 15.0 22.0 0.00 0.00 0.00 45 1019.3
20190626193521 87 160 13.0 19.0 0.00 0.00 0.00 46 1019.5
20190626193019 87 164 13.0 19.0 0.00 0.00 0.00 45 1019.5
20190626192516 87 158 12.0 17.0 0.00 0.00 0.00 46 1019.5
20190626192022 87 164 13.0 19.0 0.00 0.00 0.00 46 1019.6
20190626191516 87 160 11.0 16.0 0.00 0.00 0.00 47 1019.6
20190626191019 87 146 10.0 16.0 0.00 0.00 0.00 48 1019.6
20190626190521 87 144 12.0 17.0 0.00 0.00 0.00 47 1019.6
20190626190020 86 147 13.0 20.0 0.00 0.00 0.00 46 1019.7
20190626185516 86 157 11.0 17.0 0.00 0.00 0.00 47 1019.8
20190626185023 85 159 11.0 17.0 0.00 0.00 0.00 50 1019.9
20190626184518 85 181 11.0 17.0 0.00 0.00 0.00 49 1019.9
20190626184019 84 171 12.0 17.0 0.00 0.00 0.00 51 1020.0
20190626183521 84 161 12.0 16.0 0.00 0.00 0.00 51 1020.0
20190626183020 84 161 12.0 18.0 0.00 0.00 0.00 50 1019.9
20190626182517 84 165 12.0 17.0 0.00 0.00 0.00 51 1020.2
20190626182023 84 158 10.0 15.0 0.00 0.00 0.00 53 1020.1
20190626181517 84 159 9.0 13.0 0.00 0.00 0.00 53 1020.2
20190626181019 84 161 10.0 16.0 0.00 0.00 0.00 55 1020.2
20190626180521 83 171 9.0 14.0 0.00 0.00 0.00 56 1020.2
20190626175517 83 160 11.0 16.0 0.00 0.00 0.00 56 1020.4
20190626175024 83 148 11.0 16.0 0.00 0.00 0.00 56 1020.5
20190626174517 83 146 10.0 15.0 0.00 0.00 0.00 55 1020.5
20190626174019 83 163 11.0 16.0 0.00 0.00 0.00 55 1020.6
20190626173521 82 156 9.0 15.0 0.00 0.00 0.00 56 1020.6
20190626173019 82 154 11.0 15.0 0.00 0.00 0.00 55 1020.6
20190626172518 82 158 11.0 16.0 0.00 0.00 0.00 56 1020.4
20190626172023 82 160 11.0 15.0 0.00 0.00 0.00 57 1020.4
20190626171518 81 160 11.0 15.0 0.00 0.00 0.00 57 1020.5
20190626171018 81 164 10.0 14.0 0.00 0.00 0.00 57 1020.5
20190626170522 80 177 11.0 15.0 0.00 0.00 0.00 57 1020.6
20190626170020 80 159 10.0 14.0 0.00 0.00 0.00 57 1020.6
20190626165517 80 171 11.0 14.0 0.00 0.00 0.00 56 1020.5
20190626165023 80 171 10.0 13.0 0.00 0.00 0.00 57 1020.6
20190626164517 79 162 9.0 13.0 0.00 0.00 0.00 57 1020.7
20190626164019 79 164 9.0 13.0 0.00 0.00 0.00 58 1020.5
20190626163520 79 160 8.0 12.0 0.00 0.00 0.00 58 1020.6
20190626163020 78 152 8.0 11.0 0.00 0.00 0.00 58 1020.7
20190626162517 78 156 8.0 13.0 0.00 0.00 0.00 58 1020.7
20190626162022 77 163 9.0 13.0 0.00 0.00 0.00 58 1020.8
20190626161517 77 164 9.0 12.0 0.00 0.00 0.00 58 1020.7
20190626161019 77 165 8.0 11.0 0.00 0.00 0.00 57 1020.8
20190626160520 77 163 9.0 12.0 0.00 0.00 0.00 58 1020.8
20190626160021 77 162 7.0 10.0 0.00 0.00 0.00 57 1020.8
20190626155517 77 168 8.0 12.0 0.00 0.00 0.00 58 1020.9
20190626155023 77 160 8.0 11.0 0.00 0.00 0.00 57 1021.0
20190626154517 77 141 8.0 13.0 0.00 0.00 0.00 57 1020.9
20190626154019 76 160 7.0 10.0 0.00 0.00 0.00 57 1021.0
20190626153521 76 161 7.0 10.0 0.00 0.00 0.00 55 1021.1
20190626153020 76 142 8.0 11.0 0.00 0.00 0.00 56 1021.0
20190626152517 76 152 7.0 10.0 0.00 0.00 0.00 55 1021.0
20190626152023 76 143 8.0 12.0 0.00 0.00 0.00 56 1020.9
20190626151517 76 160 8.0 11.0 0.00 0.00 0.00 56 1021.0
20190626151019 76 140 9.0 13.0 0.00 0.00 0.00 55 1021.1
20190626150519 77 157 8.0 12.0 0.00 0.00 0.00 55 1021.1
20190626150019 77 146 8.0 12.0 0.00 0.00 0.00 56 1021.2
20190626145517 77 156 7.0 11.0 0.00 0.00 0.00 55 1021.1
20190626145138 77 158 9.0 12.0 0.00 0.00 0.00 55 1021.0
20190626144517 77 161 8.0 12.0 0.00 0.00 0.00 57 1021.1
20190626144019 76 166 7.0 10.0 0.00 0.00 0.00 57 1021.0
20190626143521 76 169 7.0 10.0 0.00 0.00 0.00 58 1021.0
20190626143019 76 162 8.0 11.0 0.00 0.00 0.00 57 1021.0
20190626142517 75 166 8.0 11.0 0.00 0.00 0.00 57 1021.1
20190626142023 75 164 7.0 10.0 0.00 0.00 0.00 59 1021.0
20190626141517 74 157 7.0 9.0 0.00 0.00 0.00 61 1020.9
20190626141020 74 164 6.0 8.0 0.00 0.00 0.00 63 1020.8
20190626140520 73 168 5.0 7.0 0.00 0.00 0.00 64 1020.8
20190626140019 72 180 4.0 6.0 0.00 0.00 0.00 65 1020.8
20190626135517 71 161 4.0 6.0 0.00 0.00 0.00 66 1020.9
20190626135022 70 167 4.0 6.0 0.00 0.00 0.00 67 1020.8
20190626134517 69 174 5.0 6.0 0.00 0.00 0.00 70 1020.8
20190626134019 68 169 4.0 6.0 0.00 0.00 0.00 74 1020.7
20190626133520 66 193 3.0 4.0 0.00 0.00 0.00 76 1020.7
20190626133020 65 171 4.0 5.0 0.00 0.00 0.00 78 1020.8
20190626132517 64 180 2.0 3.0 0.00 0.00 0.00 80 1020.9
20190626132022 63 125 1.0 2.0 0.00 0.00 0.00 79 1020.9
20190626131516 63 112 1.0 2.0 0.00 0.00 0.00 79 1020.8
20190626131019 63 112 1.0 2.0 0.00 0.00 0.00 78 1020.7
20190626130520 63 151 2.0 3.0 0.00 0.00 0.00 78 1020.7
20190626130019 63 134 3.0 5.0 0.00 0.00 0.00 78 1021.0
20190626125517 64 112 3.0 5.0 0.00 0.00 0.00 77 1020.9
20190626125023 64 90 3.0 5.0 0.00 0.00 0.00 76 1020.9
20190626124517 64 104 3.0 4.0 0.00 0.00 0.00 76 1021.1
20190626124019 64 90 1.0 2.0 0.00 0.00 0.00 74 1021.0
20190626123520 65 157 2.0 3.0 0.00 0.00 0.00 75 1020.8
20190626123018 65 247 1.0 2.0 0.00 0.00 0.00 75 1020.6
20190626122516 65 231 3.0 5.0 0.00 0.00 0.00 75 1020.5
20190626122023 64 179 3.0 5.0 0.00 0.00 0.00 75 1020.4
20190626121516 64 245 5.0 7.0 0.00 0.00 0.00 77 1020.4
20190626121018 63 189 6.0 8.0 0.00 0.00 0.00 77 1019.9
20190626120520 62 157 5.0 7.0 0.00 0.00 0.00 79 1019.5
20190626120019 62 150 5.0 7.0 0.00 0.00 0.00 81 1019.6
20190626115517 61 163 5.0 8.0 0.00 0.00 0.00 81 1019.5
20190626115022 61 165 6.0 8.0 0.00 0.00 0.00 82 1019.5
20190626114516 61 166 4.0 5.0 0.00 0.00 0.00 82 1019.6
20190626114019 61 173 4.0 6.0 0.00 0.00 0.00 82 1019.6
20190626113520 61 167 4.0 6.0 0.00 0.00 0.00 81 1019.6
20190626113019 61 156 4.0 6.0 0.00 0.00 0.00 81 1019.6
20190626112517 62 160 6.0 9.0 0.00 0.00 0.00 81 1019.6
20190626112022 62 161 5.0 7.0 0.00 0.00 0.00 82 1019.7
20190626111516 62 151 4.0 6.0 0.00 0.00 0.00 82 1019.4
20190626111019 62 160 6.0 8.0 0.00 0.00 0.00 81 1019.6
20190626110520 62 156 6.0 9.0 0.00 0.00 0.00 80 1019.8